Year,Month,Day,Hour,Minute,Value (Times are PST for temperature in C)
2018,04,27,00,00,11.90
2018,04,27,00,01,11.90
2018,04,27,00,02,11.90
2018,04,27,00,03,11.90
2018,04,27,00,04,11.90
2018,04,27,00,05,11.90
2018,04,27,00,06,11.90
2018,04,27,00,07,11.90
2018,04,27,00,08,11.90
2018,04,27,00,09,11.90
2018,04,27,00,10,11.90
2018,04,27,00,11,11.90
2018,04,27,00,12,11.90
2018,04,27,00,13,11.80
2018,04,27,00,14,11.80
2018,04,27,00,15,11.80
2018,04,27,00,16,11.80
2018,04,27,00,17,11.80
2018,04,27,00,18,11.80
2018,04,27,00,19,11.80
2018,04,27,00,20,11.80
2018,04,27,00,21,11.80
2018,04,27,00,22,11.80
2018,04,27,00,23,11.80
2018,04,27,00,24,11.80
2018,04,27,00,25,11.80
2018,04,27,00,26,11.80
2018,04,27,00,27,11.80
2018,04,27,00,28,11.80
2018,04,27,00,29,11.80
2018,04,27,00,30,11.80
2018,04,27,00,31,11.80
2018,04,27,00,32,11.80
2018,04,27,00,33,11.80
2018,04,27,00,34,11.80
2018,04,27,00,35,11.80
2018,04,27,00,36,11.80
2018,04,27,00,37,11.80
2018,04,27,00,38,11.80
2018,04,27,00,39,11.80
2018,04,27,00,40,11.80
2018,04,27,00,41,11.80
2018,04,27,00,42,11.80
2018,04,27,00,43,11.70
2018,04,27,00,44,11.70
2018,04,27,00,45,11.70
2018,04,27,00,46,11.70
2018,04,27,00,47,11.60
2018,04,27,00,48,11.60
2018,04,27,00,49,11.60
2018,04,27,00,50,11.50
2018,04,27,00,51,11.50
2018,04,27,00,52,11.50
2018,04,27,00,53,11.40
2018,04,27,00,54,11.40
2018,04,27,00,55,11.40
2018,04,27,00,56,11.30
2018,04,27,00,57,11.30
2018,04,27,00,58,11.30
2018,04,27,00,59,11.30
2018,04,27,01,00,11.30
2018,04,27,01,01,11.30
2018,04,27,01,02,11.30
2018,04,27,01,03,11.30
2018,04,27,01,04,11.20
2018,04,27,01,05,11.20
2018,04,27,01,06,11.20
2018,04,27,01,07,11.20
2018,04,27,01,08,11.20
2018,04,27,01,09,11.20
2018,04,27,01,10,11.20
2018,04,27,01,11,11.20
2018,04,27,01,12,11.20
2018,04,27,01,13,11.20
2018,04,27,01,14,11.20
2018,04,27,01,15,11.20
2018,04,27,01,16,11.20
2018,04,27,01,17,11.20
2018,04,27,01,18,11.20
2018,04,27,01,19,11.20
2018,04,27,01,20,11.20
2018,04,27,01,21,11.20
2018,04,27,01,22,11.20
2018,04,27,01,23,11.20
2018,04,27,01,24,11.10
2018,04,27,01,25,11.10
2018,04,27,01,26,11.10
2018,04,27,01,27,11.00
2018,04,27,01,28,11.00
2018,04,27,01,29,10.90
2018,04,27,01,30,10.90
2018,04,27,01,31,10.90
2018,04,27,01,32,10.80
2018,04,27,01,33,10.80
2018,04,27,01,34,10.80
2018,04,27,01,35,10.80
2018,04,27,01,36,10.80
2018,04,27,01,37,10.80
2018,04,27,01,38,10.80
2018,04,27,01,39,10.80
2018,04,27,01,40,10.80
2018,04,27,01,41,10.80
2018,04,27,01,42,10.80
2018,04,27,01,43,10.90
2018,04,27,01,44,10.80
2018,04,27,01,45,10.80
2018,04,27,01,46,10.90
2018,04,27,01,47,10.80
2018,04,27,01,48,10.80
2018,04,27,01,49,10.80
2018,04,27,01,50,10.80
2018,04,27,01,51,10.80
2018,04,27,01,52,10.80
2018,04,27,01,53,10.80
2018,04,27,01,54,10.80
2018,04,27,01,55,10.80
2018,04,27,01,56,10.80
2018,04,27,01,57,10.80
2018,04,27,01,58,10.80
2018,04,27,01,59,10.80
2018,04,27,02,00,10.70
2018,04,27,02,01,10.80
2018,04,27,02,02,10.80
2018,04,27,02,03,10.80
2018,04,27,02,04,10.80
2018,04,27,02,05,10.80
2018,04,27,02,06,10.80
2018,04,27,02,07,10.80
2018,04,27,02,08,10.90
2018,04,27,02,09,10.90
2018,04,27,02,10,11.00
2018,04,27,02,11,11.10
2018,04,27,02,12,11.10
2018,04,27,02,13,11.20
2018,04,27,02,14,11.30
2018,04,27,02,15,11.30
2018,04,27,02,16,11.40
2018,04,27,02,17,11.40
2018,04,27,02,18,11.50
2018,04,27,02,19,11.50
2018,04,27,02,20,11.50
2018,04,27,02,21,11.50
2018,04,27,02,22,11.50
2018,04,27,02,23,11.50
2018,04,27,02,24,11.50
2018,04,27,02,25,11.50
2018,04,27,02,26,11.40
2018,04,27,02,27,11.40
2018,04,27,02,28,11.50
2018,04,27,02,29,11.50
2018,04,27,02,30,11.60
2018,04,27,02,31,11.60
2018,04,27,02,32,11.60
2018,04,27,02,33,11.70
2018,04,27,02,34,11.70
2018,04,27,02,35,11.70
2018,04,27,02,36,11.70
2018,04,27,02,37,11.70
2018,04,27,02,38,11.70
2018,04,27,02,39,11.70
2018,04,27,02,40,11.70
2018,04,27,02,41,11.70
2018,04,27,02,42,11.60
2018,04,27,02,43,11.60
2018,04,27,02,44,11.60
2018,04,27,02,45,11.50
2018,04,27,02,46,11.50
2018,04,27,02,47,11.40
2018,04,27,02,48,11.40
2018,04,27,02,49,11.40
2018,04,27,02,50,11.40
2018,04,27,02,51,11.30
2018,04,27,02,52,11.30
2018,04,27,02,53,11.30
2018,04,27,02,54,11.30
2018,04,27,02,55,11.30
2018,04,27,02,56,11.30
2018,04,27,02,57,11.30
2018,04,27,02,58,11.20
2018,04,27,02,59,11.30
2018,04,27,03,00,11.30
2018,04,27,03,01,11.30
2018,04,27,03,02,11.30
2018,04,27,03,03,11.30
2018,04,27,03,04,11.30
2018,04,27,03,05,11.40
2018,04,27,03,06,11.40
2018,04,27,03,07,11.30
2018,04,27,03,08,11.30
2018,04,27,03,09,11.30
2018,04,27,03,10,11.30
2018,04,27,03,11,11.30
2018,04,27,03,12,11.30
2018,04,27,03,13,11.20
2018,04,27,03,14,11.20
2018,04,27,03,15,11.20
2018,04,27,03,16,11.20
2018,04,27,03,17,11.10
2018,04,27,03,18,11.10
2018,04,27,03,19,11.00
2018,04,27,03,20,11.00
2018,04,27,03,21,10.90
2018,04,27,03,22,10.90
2018,04,27,03,23,10.80
2018,04,27,03,24,10.80
2018,04,27,03,25,10.80
2018,04,27,03,26,10.70
2018,04,27,03,27,10.70
2018,04,27,03,28,10.60
2018,04,27,03,29,10.60
2018,04,27,03,30,10.60
2018,04,27,03,31,10.60
2018,04,27,03,32,10.60
2018,04,27,03,33,10.50
2018,04,27,03,34,10.50
2018,04,27,03,35,10.40
2018,04,27,03,36,10.40
2018,04,27,03,37,10.40
2018,04,27,03,38,10.40
2018,04,27,03,39,10.30
2018,04,27,03,40,10.30
2018,04,27,03,41,10.30
2018,04,27,03,42,10.20
2018,04,27,03,43,10.20
2018,04,27,03,44,10.10
2018,04,27,03,45,10.10
2018,04,27,03,46,10.10
2018,04,27,03,47,10.10
2018,04,27,03,48,10.10
2018,04,27,03,49,10.00
2018,04,27,03,50,10.00
2018,04,27,03,51,10.00
2018,04,27,03,52,10.00
2018,04,27,03,53,9.90
2018,04,27,03,54,9.90
2018,04,27,03,55,9.90
2018,04,27,03,56,9.90
2018,04,27,03,57,9.90
2018,04,27,03,58,9.90
2018,04,27,03,59,10.00
2018,04,27,04,00,10.00
2018,04,27,04,01,10.00
2018,04,27,04,02,10.00
2018,04,27,04,03,10.10
2018,04,27,04,04,10.00
2018,04,27,04,05,10.00
2018,04,27,04,06,10.00
2018,04,27,04,07,10.00
2018,04,27,04,08,9.90
2018,04,27,04,09,9.90
2018,04,27,04,10,9.90
2018,04,27,04,11,9.90
2018,04,27,04,12,9.80
2018,04,27,04,13,9.80
2018,04,27,04,14,9.80
2018,04,27,04,15,9.80
2018,04,27,04,16,9.80
2018,04,27,04,17,9.90
2018,04,27,04,18,9.90
2018,04,27,04,19,9.90
2018,04,27,04,20,9.90
2018,04,27,04,21,9.90
2018,04,27,04,22,9.80
2018,04,27,04,23,9.80
2018,04,27,04,24,9.80
2018,04,27,04,25,9.80
2018,04,27,04,26,9.80
2018,04,27,04,27,9.80
2018,04,27,04,28,9.80
2018,04,27,04,29,9.80
2018,04,27,04,30,9.80
2018,04,27,04,31,9.80
2018,04,27,04,32,9.80
2018,04,27,04,33,9.80
2018,04,27,04,34,9.70
2018,04,27,04,35,9.70
2018,04,27,04,36,9.70
2018,04,27,04,37,9.70
2018,04,27,04,38,9.70
2018,04,27,04,39,9.70
2018,04,27,04,40,9.70
2018,04,27,04,41,9.70
2018,04,27,04,42,9.70
2018,04,27,04,43,9.70
2018,04,27,04,44,9.70
2018,04,27,04,45,9.70
2018,04,27,04,46,9.70
2018,04,27,04,47,9.70
2018,04,27,04,48,9.70
2018,04,27,04,49,9.80
2018,04,27,04,50,9.70
2018,04,27,04,51,9.70
2018,04,27,04,52,9.70
2018,04,27,04,53,9.70
2018,04,27,04,54,9.70
2018,04,27,04,55,9.70
2018,04,27,04,56,9.70
2018,04,27,04,57,9.70
2018,04,27,04,58,9.70
2018,04,27,04,59,9.70
2018,04,27,05,00,9.70
2018,04,27,05,01,9.70
2018,04,27,05,02,9.70
2018,04,27,05,03,9.70
2018,04,27,05,04,9.70
2018,04,27,05,05,9.70
2018,04,27,05,06,9.70
2018,04,27,05,07,9.70
2018,04,27,05,08,9.70
2018,04,27,05,09,9.70
2018,04,27,05,10,9.70
2018,04,27,05,11,9.80
2018,04,27,05,12,9.80
2018,04,27,05,13,9.80
2018,04,27,05,14,9.80
2018,04,27,05,15,9.90
2018,04,27,05,16,9.90
2018,04,27,05,17,9.90
2018,04,27,05,18,10.00
2018,04,27,05,19,10.00
2018,04,27,05,20,10.00
2018,04,27,05,21,10.00
2018,04,27,05,22,10.10
2018,04,27,05,23,10.10
2018,04,27,05,24,10.10
2018,04,27,05,25,10.10
2018,04,27,05,26,10.10
2018,04,27,05,27,10.10
2018,04,27,05,28,10.00
2018,04,27,05,29,10.00
2018,04,27,05,30,10.00
2018,04,27,05,31,10.00
2018,04,27,05,32,10.00
2018,04,27,05,33,10.00
2018,04,27,05,34,10.10
2018,04,27,05,35,10.10
2018,04,27,05,36,10.10
2018,04,27,05,37,10.00
2018,04,27,05,38,10.00
2018,04,27,05,39,10.00
2018,04,27,05,40,9.90
2018,04,27,05,41,9.90
2018,04,27,05,42,9.90
2018,04,27,05,43,9.90
2018,04,27,05,44,9.80
2018,04,27,05,45,9.80
2018,04,27,05,46,9.80
2018,04,27,05,47,9.80
2018,04,27,05,48,9.70
2018,04,27,05,49,9.70
2018,04,27,05,50,9.70
2018,04,27,05,51,9.70
2018,04,27,05,52,9.70
2018,04,27,05,53,9.60
2018,04,27,05,54,9.60
2018,04,27,05,55,9.60
2018,04,27,05,56,9.60
2018,04,27,05,57,9.60
2018,04,27,05,58,9.60
2018,04,27,05,59,9.70
2018,04,27,06,00,9.70
2018,04,27,06,01,9.70
2018,04,27,06,02,9.70
2018,04,27,06,03,9.70
2018,04,27,06,04,9.70
2018,04,27,06,05,9.70
2018,04,27,06,06,9.70
2018,04,27,06,07,9.60
2018,04,27,06,08,9.60
2018,04,27,06,09,9.60
2018,04,27,06,10,9.60
2018,04,27,06,11,9.60
2018,04,27,06,12,9.60
2018,04,27,06,13,9.50
2018,04,27,06,14,9.50
2018,04,27,06,15,9.50
2018,04,27,06,16,9.50
2018,04,27,06,17,9.40
2018,04,27,06,18,9.40
2018,04,27,06,19,9.40
2018,04,27,06,20,9.40
2018,04,27,06,21,9.40
2018,04,27,06,22,9.40
2018,04,27,06,23,9.40
2018,04,27,06,24,9.50
2018,04,27,06,25,9.50
2018,04,27,06,26,9.60
2018,04,27,06,27,9.60
2018,04,27,06,28,9.60
2018,04,27,06,29,9.70
2018,04,27,06,30,9.70
2018,04,27,06,31,9.70
2018,04,27,06,32,9.70
2018,04,27,06,33,9.70
2018,04,27,06,34,9.70
2018,04,27,06,35,9.70
2018,04,27,06,36,9.70
2018,04,27,06,37,9.80
2018,04,27,06,38,9.80
2018,04,27,06,39,9.70
2018,04,27,06,40,9.70
2018,04,27,06,41,9.70
2018,04,27,06,42,9.70
2018,04,27,06,43,9.70
2018,04,27,06,44,9.70
2018,04,27,06,45,9.70
2018,04,27,06,46,9.70
2018,04,27,06,47,9.70
2018,04,27,06,48,9.60
2018,04,27,06,49,9.60
2018,04,27,06,50,9.60
2018,04,27,06,51,9.60
2018,04,27,06,52,9.60
2018,04,27,06,53,9.60
2018,04,27,06,54,9.60
2018,04,27,06,55,9.50
2018,04,27,06,56,9.50
2018,04,27,06,57,9.60
2018,04,27,06,58,9.60
2018,04,27,06,59,9.60
2018,04,27,07,00,9.60
2018,04,27,07,01,9.60
2018,04,27,07,02,9.60
2018,04,27,07,03,9.60
2018,04,27,07,04,9.60
2018,04,27,07,05,9.70
2018,04,27,07,06,9.70
2018,04,27,07,07,9.70
2018,04,27,07,08,9.70
2018,04,27,07,09,9.70
2018,04,27,07,10,9.80
2018,04,27,07,11,9.80
2018,04,27,07,12,9.80
2018,04,27,07,13,9.90
2018,04,27,07,14,9.90
2018,04,27,07,15,10.00
2018,04,27,07,16,10.00
2018,04,27,07,17,10.00
2018,04,27,07,18,10.10
2018,04,27,07,19,10.10
2018,04,27,07,20,10.20
2018,04,27,07,21,10.20
2018,04,27,07,22,10.20
2018,04,27,07,23,10.20
2018,04,27,07,24,10.20
2018,04,27,07,25,10.20
2018,04,27,07,26,10.30
2018,04,27,07,27,10.30
2018,04,27,07,28,10.30
2018,04,27,07,29,10.30
2018,04,27,07,30,10.30
2018,04,27,07,31,10.40
2018,04,27,07,32,10.40
2018,04,27,07,33,10.40
2018,04,27,07,34,10.50
2018,04,27,07,35,10.50
2018,04,27,07,36,10.60
2018,04,27,07,37,10.60
2018,04,27,07,38,10.70
2018,04,27,07,39,10.70
2018,04,27,07,40,10.80
2018,04,27,07,41,10.80
2018,04,27,07,42,10.80
2018,04,27,07,43,10.90
2018,04,27,07,44,10.90
2018,04,27,07,45,11.00
2018,04,27,07,46,11.10
2018,04,27,07,47,11.10
2018,04,27,07,48,11.20
2018,04,27,07,49,11.20
2018,04,27,07,50,11.30
2018,04,27,07,51,11.30
2018,04,27,07,52,11.40
2018,04,27,07,53,11.40
2018,04,27,07,54,11.50
2018,04,27,07,55,11.60
2018,04,27,07,56,11.60
2018,04,27,07,57,11.70
2018,04,27,07,58,11.70
2018,04,27,07,59,11.80
2018,04,27,08,00,11.80
2018,04,27,08,01,11.80
2018,04,27,08,02,11.90
2018,04,27,08,03,12.00
2018,04,27,08,04,12.00
2018,04,27,08,05,12.10
2018,04,27,08,06,12.20
2018,04,27,08,07,12.20
2018,04,27,08,08,12.30
2018,04,27,08,09,12.30
2018,04,27,08,10,12.40
2018,04,27,08,11,12.50
2018,04,27,08,12,12.50
2018,04,27,08,13,12.60
2018,04,27,08,14,12.60
2018,04,27,08,15,12.60
2018,04,27,08,16,12.70
2018,04,27,08,17,12.70
2018,04,27,08,18,12.80
2018,04,27,08,19,12.80
2018,04,27,08,20,12.80
2018,04,27,08,21,12.90
2018,04,27,08,22,13.00
2018,04,27,08,23,13.10
2018,04,27,08,24,13.10
2018,04,27,08,25,13.20
2018,04,27,08,26,13.30
2018,04,27,08,27,13.30
2018,04,27,08,28,13.40
2018,04,27,08,29,13.40
2018,04,27,08,30,13.40
2018,04,27,08,31,13.50
2018,04,27,08,32,13.50
2018,04,27,08,33,13.60
2018,04,27,08,34,13.60
2018,04,27,08,35,13.70
2018,04,27,08,36,13.70
2018,04,27,08,37,13.70
2018,04,27,08,38,13.70
2018,04,27,08,39,13.80
2018,04,27,08,40,13.80
2018,04,27,08,41,13.80
2018,04,27,08,42,13.90
2018,04,27,08,43,13.90
2018,04,27,08,44,13.90
2018,04,27,08,45,13.90
2018,04,27,08,46,14.00
2018,04,27,08,47,14.00
2018,04,27,08,48,14.00
2018,04,27,08,49,14.10
2018,04,27,08,50,14.10
2018,04,27,08,51,14.10
2018,04,27,08,52,14.10
2018,04,27,08,53,14.10
2018,04,27,08,54,14.10
2018,04,27,08,55,14.20
2018,04,27,08,56,14.20
2018,04,27,08,57,14.20
2018,04,27,08,58,14.30
2018,04,27,08,59,14.30
2018,04,27,09,00,14.30
2018,04,27,09,01,14.40
2018,04,27,09,02,14.50
2018,04,27,09,03,14.60
2018,04,27,09,04,14.70
2018,04,27,09,05,14.80
2018,04,27,09,06,14.80
2018,04,27,09,07,15.00
2018,04,27,09,08,15.10
2018,04,27,09,09,15.20
2018,04,27,09,10,15.30
2018,04,27,09,11,15.40
2018,04,27,09,12,15.40
2018,04,27,09,13,15.50
2018,04,27,09,14,15.60
2018,04,27,09,15,15.70
2018,04,27,09,16,15.80
2018,04,27,09,17,15.90
2018,04,27,09,18,16.10
2018,04,27,09,19,16.20
2018,04,27,09,20,16.30
2018,04,27,09,21,16.30
2018,04,27,09,22,16.30
2018,04,27,09,23,16.40
2018,04,27,09,24,16.40
2018,04,27,09,25,16.30
2018,04,27,09,26,16.30
2018,04,27,09,27,16.20
2018,04,27,09,28,16.20
2018,04,27,09,29,16.30
2018,04,27,09,30,16.20
2018,04,27,09,31,16.20
2018,04,27,09,32,16.20
2018,04,27,09,33,16.20
2018,04,27,09,34,16.20
2018,04,27,09,35,16.20
2018,04,27,09,36,16.20
2018,04,27,09,37,16.20
2018,04,27,09,38,16.30
2018,04,27,09,39,16.40
2018,04,27,09,40,16.50
2018,04,27,09,41,16.50
2018,04,27,09,42,16.50
2018,04,27,09,43,16.60
2018,04,27,09,44,16.60
2018,04,27,09,45,16.70
2018,04,27,09,46,16.80
2018,04,27,09,47,16.90
2018,04,27,09,48,17.00
2018,04,27,09,49,17.00
2018,04,27,09,50,16.90
2018,04,27,09,51,16.90
2018,04,27,09,52,16.90
2018,04,27,09,53,16.90
2018,04,27,09,54,16.90
2018,04,27,09,55,16.90
2018,04,27,09,56,16.90
2018,04,27,09,57,16.90
2018,04,27,09,58,16.90
2018,04,27,09,59,16.80
2018,04,27,10,00,16.90
2018,04,27,10,01,16.90
2018,04,27,10,02,17.00
2018,04,27,10,03,17.00
2018,04,27,10,04,17.10
2018,04,27,10,05,17.10
2018,04,27,10,06,17.20
2018,04,27,10,07,17.20
2018,04,27,10,08,17.20
2018,04,27,10,09,17.30
2018,04,27,10,10,17.30
2018,04,27,10,11,17.40
2018,04,27,10,12,17.40
2018,04,27,10,13,17.40
2018,04,27,10,14,17.30
2018,04,27,10,15,17.30
2018,04,27,10,16,17.30
2018,04,27,10,17,17.20
2018,04,27,10,18,17.20
2018,04,27,10,19,17.30
2018,04,27,10,20,17.30
2018,04,27,10,21,17.30
2018,04,27,10,22,17.30
2018,04,27,10,23,17.40
2018,04,27,10,24,17.40
2018,04,27,10,25,17.40
2018,04,27,10,26,17.40
2018,04,27,10,27,17.40
2018,04,27,10,28,17.40
2018,04,27,10,29,17.40
2018,04,27,10,30,17.40
2018,04,27,10,31,17.40
2018,04,27,10,32,17.40
2018,04,27,10,33,17.40
2018,04,27,10,34,17.40
2018,04,27,10,35,17.30
2018,04,27,10,36,17.20
2018,04,27,10,37,17.20
2018,04,27,10,38,17.20
2018,04,27,10,39,17.20
2018,04,27,10,40,17.30
2018,04,27,10,41,17.30
2018,04,27,10,42,17.30
2018,04,27,10,43,17.20
2018,04,27,10,44,17.00
2018,04,27,10,45,17.00
2018,04,27,10,46,17.20
2018,04,27,10,47,17.30
2018,04,27,10,48,17.30
2018,04,27,10,49,17.30
2018,04,27,10,50,17.40
2018,04,27,10,51,17.30
2018,04,27,10,52,17.20
2018,04,27,10,53,17.10
2018,04,27,10,54,17.10
2018,04,27,10,55,17.20
2018,04,27,10,56,17.20
2018,04,27,10,57,17.30
2018,04,27,10,58,17.20
2018,04,27,10,59,17.20
2018,04,27,11,00,17.30
2018,04,27,11,01,17.30
2018,04,27,11,02,17.30
2018,04,27,11,03,17.30
2018,04,27,11,04,17.40
2018,04,27,11,05,17.40
2018,04,27,11,06,17.40
2018,04,27,11,07,17.40
2018,04,27,11,08,17.40
2018,04,27,11,09,17.30
2018,04,27,11,10,17.30
2018,04,27,11,11,17.20
2018,04,27,11,12,17.20
2018,04,27,11,13,17.20
2018,04,27,11,14,17.20
2018,04,27,11,15,17.20
2018,04,27,11,16,17.30
2018,04,27,11,17,17.50
2018,04,27,11,18,17.60
2018,04,27,11,19,17.70
2018,04,27,11,20,17.80
2018,04,27,11,21,18.00
2018,04,27,11,22,18.00
2018,04,27,11,23,18.10
2018,04,27,11,24,18.10
2018,04,27,11,25,18.20
2018,04,27,11,26,18.20
2018,04,27,11,27,18.20
2018,04,27,11,28,18.20
2018,04,27,11,29,18.20
2018,04,27,11,30,18.20
2018,04,27,11,31,18.20
2018,04,27,11,32,18.30
2018,04,27,11,33,18.30
2018,04,27,11,34,18.40
2018,04,27,11,35,18.60
2018,04,27,11,36,18.80
2018,04,27,11,37,18.90
2018,04,27,11,38,19.10
2018,04,27,11,39,19.20
2018,04,27,11,40,19.30
2018,04,27,11,41,19.40
2018,04,27,11,42,19.30
2018,04,27,11,43,19.00
2018,04,27,11,44,18.90
2018,04,27,11,45,18.80
2018,04,27,11,46,18.80
2018,04,27,11,47,18.80
2018,04,27,11,48,18.80
2018,04,27,11,49,18.70
2018,04,27,11,50,18.60
2018,04,27,11,51,18.70
2018,04,27,11,52,18.70
2018,04,27,11,53,18.70
2018,04,27,11,54,18.80
2018,04,27,11,55,18.80
2018,04,27,11,56,18.90
2018,04,27,11,57,18.90
2018,04,27,11,58,19.00
2018,04,27,11,59,19.00
2018,04,27,12,00,18.90
2018,04,27,12,01,18.90
2018,04,27,12,02,19.00
2018,04,27,12,03,19.10
2018,04,27,12,04,19.10
2018,04,27,12,05,19.00
2018,04,27,12,06,18.80
2018,04,27,12,07,18.60
2018,04,27,12,08,18.50
2018,04,27,12,09,18.40
2018,04,27,12,10,18.40
2018,04,27,12,11,18.50
2018,04,27,12,12,18.60
2018,04,27,12,13,18.70
2018,04,27,12,14,18.90
2018,04,27,12,15,19.00
2018,04,27,12,16,19.10
2018,04,27,12,17,19.20
2018,04,27,12,18,19.30
2018,04,27,12,19,19.40
2018,04,27,12,20,19.40
2018,04,27,12,21,19.40
2018,04,27,12,22,19.30
2018,04,27,12,23,19.30
2018,04,27,12,24,19.20
2018,04,27,12,25,19.10
2018,04,27,12,26,19.20
2018,04,27,12,27,19.30
2018,04,27,12,28,19.30
2018,04,27,12,29,19.40
2018,04,27,12,30,19.30
2018,04,27,12,31,19.20
2018,04,27,12,32,19.30
2018,04,27,12,33,19.40
2018,04,27,12,34,19.40
2018,04,27,12,35,19.40
2018,04,27,12,36,19.30
2018,04,27,12,37,19.10
2018,04,27,12,38,19.10
2018,04,27,12,39,19.20
2018,04,27,12,40,19.30
2018,04,27,12,41,19.30
2018,04,27,12,42,19.30
2018,04,27,12,43,19.30
2018,04,27,12,44,19.30
2018,04,27,12,45,19.30
2018,04,27,12,46,19.30
2018,04,27,12,47,19.30
2018,04,27,12,48,19.30
2018,04,27,12,49,19.30
2018,04,27,12,50,19.40
2018,04,27,12,51,19.50
2018,04,27,12,52,19.60
2018,04,27,12,53,19.60
2018,04,27,12,54,19.80
2018,04,27,12,55,19.90
2018,04,27,12,56,20.00
2018,04,27,12,57,20.10
2018,04,27,12,58,20.20
2018,04,27,12,59,20.30
2018,04,27,13,00,20.20
2018,04,27,13,01,20.00
2018,04,27,13,02,19.90
2018,04,27,13,03,19.60
2018,04,27,13,04,19.50
2018,04,27,13,05,19.60
2018,04,27,13,06,19.80
2018,04,27,13,07,19.80
2018,04,27,13,08,19.90
2018,04,27,13,09,19.90
2018,04,27,13,10,19.80
2018,04,27,13,11,19.70
2018,04,27,13,12,19.60
2018,04,27,13,13,19.50
2018,04,27,13,14,19.50
2018,04,27,13,15,19.60
2018,04,27,13,16,19.70
2018,04,27,13,17,19.90
2018,04,27,13,18,19.90
2018,04,27,13,19,19.90
2018,04,27,13,20,19.80
2018,04,27,13,21,19.50
2018,04,27,13,22,19.20
2018,04,27,13,23,19.20
2018,04,27,13,24,19.30
2018,04,27,13,25,19.30
2018,04,27,13,26,19.20
2018,04,27,13,27,19.10
2018,04,27,13,28,19.00
2018,04,27,13,29,18.80
2018,04,27,13,30,18.70
2018,04,27,13,31,18.80
2018,04,27,13,32,18.90
2018,04,27,13,33,18.80
2018,04,27,13,34,18.90
2018,04,27,13,35,18.90
2018,04,27,13,36,19.00
2018,04,27,13,37,19.10
2018,04,27,13,38,19.20
2018,04,27,13,39,19.10
2018,04,27,13,40,18.90
2018,04,27,13,41,18.90
2018,04,27,13,42,18.80
2018,04,27,13,43,18.80
2018,04,27,13,44,18.80
2018,04,27,13,45,18.80
2018,04,27,13,46,18.90
2018,04,27,13,47,18.90
2018,04,27,13,48,18.80
2018,04,27,13,49,18.80
2018,04,27,13,50,18.80
2018,04,27,13,51,18.80
2018,04,27,13,52,18.90
2018,04,27,13,53,19.00
2018,04,27,13,54,19.20
2018,04,27,13,55,19.20
2018,04,27,13,56,19.40
2018,04,27,13,57,19.60
2018,04,27,13,58,19.90
2018,04,27,13,59,20.00
2018,04,27,14,00,20.10
2018,04,27,14,01,20.20
2018,04,27,14,02,20.10
2018,04,27,14,03,20.10
2018,04,27,14,04,20.00
2018,04,27,14,05,19.80
2018,04,27,14,06,19.60
2018,04,27,14,07,19.40
2018,04,27,14,08,19.30
2018,04,27,14,09,19.30
2018,04,27,14,10,19.30
2018,04,27,14,11,19.20
2018,04,27,14,12,19.10
2018,04,27,14,13,19.10
2018,04,27,14,14,19.00
2018,04,27,14,15,19.10
2018,04,27,14,16,19.10
2018,04,27,14,17,19.10
2018,04,27,14,18,19.10
2018,04,27,14,19,19.00
2018,04,27,14,20,18.80
2018,04,27,14,21,18.80
2018,04,27,14,22,18.80
2018,04,27,14,23,18.60
2018,04,27,14,24,18.50
2018,04,27,14,25,18.40
2018,04,27,14,26,18.40
2018,04,27,14,27,18.40
2018,04,27,14,28,18.30
2018,04,27,14,29,18.30
2018,04,27,14,30,18.30
2018,04,27,14,31,18.20
2018,04,27,14,32,18.10
2018,04,27,14,33,18.10
2018,04,27,14,34,18.10
2018,04,27,14,35,18.10
2018,04,27,14,36,18.30
2018,04,27,14,37,18.40
2018,04,27,14,38,18.40
2018,04,27,14,39,18.40
2018,04,27,14,40,18.50
2018,04,27,14,41,18.60
2018,04,27,14,42,18.70
2018,04,27,14,43,18.70
2018,04,27,14,44,18.60
2018,04,27,14,45,18.40
2018,04,27,14,46,18.20
2018,04,27,14,47,18.00
2018,04,27,14,48,17.90
2018,04,27,14,49,17.90
2018,04,27,14,50,17.80
2018,04,27,14,51,17.90
2018,04,27,14,52,17.90
2018,04,27,14,53,18.10
2018,04,27,14,54,18.20
2018,04,27,14,55,18.20
2018,04,27,14,56,18.20
2018,04,27,14,57,18.20
2018,04,27,14,58,18.00
2018,04,27,14,59,18.00
2018,04,27,15,00,17.80
2018,04,27,15,01,17.70
2018,04,27,15,02,17.50
2018,04,27,15,03,17.40
2018,04,27,15,04,17.30
2018,04,27,15,05,17.30
2018,04,27,15,06,17.20
2018,04,27,15,07,17.10
2018,04,27,15,08,17.00
2018,04,27,15,09,16.90
2018,04,27,15,10,16.90
2018,04,27,15,11,16.90
2018,04,27,15,12,16.80
2018,04,27,15,13,16.80
2018,04,27,15,14,16.90
2018,04,27,15,15,17.00
2018,04,27,15,16,17.10
2018,04,27,15,17,17.20
2018,04,27,15,18,17.20
2018,04,27,15,19,17.30
2018,04,27,15,20,17.40
2018,04,27,15,21,17.40
2018,04,27,15,22,17.30
2018,04,27,15,23,17.20
2018,04,27,15,24,17.20
2018,04,27,15,25,17.30
2018,04,27,15,26,17.50
2018,04,27,15,27,17.60
2018,04,27,15,28,17.70
2018,04,27,15,29,17.60
2018,04,27,15,30,17.60
2018,04,27,15,31,17.50
2018,04,27,15,32,17.50
2018,04,27,15,33,17.40
2018,04,27,15,34,17.30
2018,04,27,15,35,17.40
2018,04,27,15,36,17.30
2018,04,27,15,37,17.30
2018,04,27,15,38,17.30
2018,04,27,15,39,17.30
2018,04,27,15,40,17.40
2018,04,27,15,41,17.40
2018,04,27,15,42,17.40
2018,04,27,15,43,17.40
2018,04,27,15,44,17.50
2018,04,27,15,45,17.40
2018,04,27,15,46,17.30
2018,04,27,15,47,17.20
2018,04,27,15,48,17.10
2018,04,27,15,49,16.90
2018,04,27,15,50,16.80
2018,04,27,15,51,16.70
2018,04,27,15,52,16.70
2018,04,27,15,53,16.80
2018,04,27,15,54,16.70
2018,04,27,15,55,16.80
2018,04,27,15,56,16.90
2018,04,27,15,57,16.90
2018,04,27,15,58,16.80
2018,04,27,15,59,16.80
2018,04,27,16,00,16.70
2018,04,27,16,01,16.80
2018,04,27,16,02,16.90
2018,04,27,16,03,17.10
2018,04,27,16,04,17.20
2018,04,27,16,05,17.10
2018,04,27,16,06,17.10
2018,04,27,16,07,17.10
2018,04,27,16,08,17.00
2018,04,27,16,09,17.00
2018,04,27,16,10,17.10
2018,04,27,16,11,17.20
2018,04,27,16,12,17.30
2018,04,27,16,13,17.30
2018,04,27,16,14,17.30
2018,04,27,16,15,17.30
2018,04,27,16,16,17.30
2018,04,27,16,17,17.40
2018,04,27,16,18,17.30
2018,04,27,16,19,17.30
2018,04,27,16,20,17.40
2018,04,27,16,21,17.30
2018,04,27,16,22,17.30
2018,04,27,16,23,17.20
2018,04,27,16,24,17.20
2018,04,27,16,25,17.20
2018,04,27,16,26,17.10
2018,04,27,16,27,17.10
2018,04,27,16,28,17.20
2018,04,27,16,29,17.30
2018,04,27,16,30,17.30
2018,04,27,16,31,17.20
2018,04,27,16,32,17.20
2018,04,27,16,33,17.20
2018,04,27,16,34,17.20
2018,04,27,16,35,17.20
2018,04,27,16,36,17.20
2018,04,27,16,37,17.20
2018,04,27,16,38,17.10
2018,04,27,16,39,17.00
2018,04,27,16,40,16.90
2018,04,27,16,41,16.80
2018,04,27,16,42,16.80
2018,04,27,16,43,16.60
2018,04,27,16,44,16.60
2018,04,27,16,45,16.60
2018,04,27,16,46,16.60
2018,04,27,16,47,16.70
2018,04,27,16,48,16.80
2018,04,27,16,49,16.90
2018,04,27,16,50,16.90
2018,04,27,16,51,16.90
2018,04,27,16,52,16.90
2018,04,27,16,53,16.90
2018,04,27,16,54,17.00
2018,04,27,16,55,17.00
2018,04,27,16,56,16.90
2018,04,27,16,57,16.90
2018,04,27,16,58,16.90
2018,04,27,16,59,17.00
2018,04,27,17,00,17.00
2018,04,27,17,01,17.10
2018,04,27,17,02,17.10
2018,04,27,17,03,17.00
2018,04,27,17,04,16.90
2018,04,27,17,05,16.90
2018,04,27,17,06,16.80
2018,04,27,17,07,16.80
2018,04,27,17,08,16.80
2018,04,27,17,09,16.80
2018,04,27,17,10,16.80
2018,04,27,17,11,16.70
2018,04,27,17,12,16.60
2018,04,27,17,13,16.60
2018,04,27,17,14,16.50
2018,04,27,17,15,16.40
2018,04,27,17,16,16.40
2018,04,27,17,17,16.30
2018,04,27,17,18,16.30
2018,04,27,17,19,16.20
2018,04,27,17,20,16.00
2018,04,27,17,21,16.00
2018,04,27,17,22,15.80
2018,04,27,17,23,15.80
2018,04,27,17,24,15.70
2018,04,27,17,25,15.70
2018,04,27,17,26,15.80